Tracking 29777 objects as of 6-Oct-2024
HD Live streaming from Space Station
objects crossing your sky now

ARIANE 5 R/B

Track ARIANE 5 R/B now!


NORAD ID: 28787
Int'l Code: 2005-028B
Perigee: 589.5 km
Apogee: 35,629.9 km
Inclination: 7.1 °
Period: 635.3 minutes
Semi major axis: 24480 km
RCS: 17.904 m2 (large)
Launch date: August 11, 2005
Source: France (FR)
Launch site: FRENCH GUIANA (FRGUI)

Note: This is a ROCKET BODY
Your satellite tracking list
Your tracking list is empty




NASA's NSSDC Master Catalog

Two Line Element Set (TLE):
1 28787U 05028B   24277.37110631 -.00000046  00000-0  23585-3 0  9998
2 28787   7.0631  95.4576 7156732  48.3479 354.0351  2.26655757158553
Source of the keplerian elements: AFSPC